Wind_Speed
24 26 29 31 32 33 36 38 39 39 39 39 39 39 39 40 40 41 42 43 43 44 45 45 45 46 45 45 45 45 46 46 46 46 47 47 47 47 48 48 48 48 48 48
23 24 26 29 31 32 34 36 37 38 39 39 39 39 39 39 40 40 42 43 43 43 44 44 45 46 46 46 46 46 46 46 46 46 46 47 46 46 47 47 48 49 49 48
20 23 26 28 28 30 32 34 37 39 38 38 39 39 39 39 39 40 40 41 42 43 43 44 44 45 45 45 45 46 46 46 46 47 47 47 47 47 47 47 47 47 47 48
19 21 24 26 28 29 31 32 34 36 37 37 37 38 37 37 37 38 39 39 41 42 42 43 43 44 44 45 45 45 45 46 46 47 47 47 47 47 48 48 48 47 47 47
17 18 21 23 25 28 30 30 32 34 36 36 36 37 37 37 37 36 36 38 39 40 41 41 41 42 42 43 44 44 44 45 46 46 46 46 46 46 46 46 47 47 47 47
15 15 17 20 22 24 27 29 31 32 33 35 36 37 36 36 37 36 36 37 38 38 39 40 40 41 41 41 42 43 43 43 44 45 45 45 44 45 45 45 45 45 46 46
13 14 15 17 19 21 23 25 28 30 31 32 34 34 34 34 34 35 36 36 37 37 37 38 39 39 40 40 41 42 43 43 44 44 44 44 44 44 44 44 43 43 44 44
11 12 13 15 17 20 21 23 25 27 28 30 31 32 32 32 32 33 34 35 36 36 36 37 37 38 38 38 39 41 42 42 43 43 44 44 44 44 44 43 43 43 43 43
10 11 11 12 15 17 19 21 23 24 25 27 27 29 30 30 31 32 32 33 34 35 35 35 36 36 37 37 38 38 39 41 42 42 43 43 44 43 43 43 43 43 42 42
8 10 11 12 14 14 16 18 20 22 22 23 25 26 27 28 29 29 30 31 33 34 33 34 34 35 35 35 36 36 37 39 40 41 42 42 43 43 42 42 42 42 42 42
8 9 10 10 12 13 14 16 17 19 21 21 22 23 24 25 27 28 29 29 30 31 31 31 32 33 34 34 35 36 36 36 37 38 39 40 41 41 41 42 42 42 42 42
8 9 10 10 11 12 13 15 16 18 19 20 20 21 22 24 26 27 28 28 28 28 29 30 31 32 33 33 34 34 35 35 35 36 37 37 38 38 39 40 40 41 41 41
9 10 11 11 11 11 11 13 15 16 17 18 19 19 21 23 24 26 26 26 26 27 27 29 30 31 32 33 33 33 34 34 35 35 35 36 36 36 36 37 38 38 39 39
11 11 12 12 12 12 12 12 13 14 15 16 17 18 19 21 22 22 24 24 25 26 26 27 28 29 30 31 31 31 32 32 33 34 35 35 35 36 36 36 37 37 37 37
11 12 12 13 12 12 12 12 13 14 15 15 16 17 18 20 20 21 21 22 23 24 24 25 26 27 28 29 29 29 30 31 32 33 34 34 35 35 35 36 36 36 37 38
12 12 12 12 12 12 13 13 13 14 15 16 16 17 18 19 19 19 20 21 22 22 23 23 24 26 27 27 28 28 29 30 31 32 33 33 33 33 34 35 35 36 37 37
12 12 12 12 12 13 13 14 14 14 15 16 16 17 18 19 19 20 20 21 21 22 22 23 23 24 25 26 27 27 28 29 29 30 31 31 32 32 33 33 34 35 35 35
13 12 13 13 13 13 14 14 15 15 15 16 17 17 18 18 19 20 21 21 22 22 22 23 23 23 24 24 25 26 26 27 28 29 30 30 31 31 31 32 32 33 34 34
13 13 13 13 13 14 14 14 15 15 16 16 17 17 18 18 19 20 21 22 23 23 23 23 24 24 24 24 25 26 26 27 28 29 29 30 30 30 31 31 32 32 33 34
13 13 14 14 14 14 15 15 15 16 17 17 18 18 18 19 19 20 21 22 22 23 23 23 23 23 24 25 26 26 27 28 28 29 29 29 30 31 31 31 32 32 33 34
15 15 15 15 16 16 16 16 16 16 17 18 19 19 19 20 20 20 20 21 22 23 23 23 24 23 23 24 25 26 27 28 29 29 29 30 30 31 31 32 32 33 33 33
16 17 17 17 17 17 17 16 16 17 17 18 18 19 20 20 21 21 21 21 22 23 23 24 24 24 24 24 24 25 26 27 27 28 29 29 30 30 30 30 30 30 31 31
18 18 17 17 17 17 17 17 16 16 17 17 17 18 18 19 19 20 20 20 21 22 23 23 24 24 24 24 24 24 24 25 26 26 26 26 27 27 27 27 28 28 29 29
17 17 17 17 17 18 18 17 17 17 17 18 17 17 17 17 17 18 19 19 19 20 21 21 22 22 22 22 23 23 24 24 24 24 24 24 25 25 25 26 26 26 26 27
18 17 18 18 18 18 18 18 18 17 17 17 17 17 17 17 18 18 19 19 19 19 19 19 20 20 20 20 21 21 21 21 21 21 21 22 22 23 24 24 24 24 24 25
18 18 19 19 18 18 18 18 18 18 18 17 17 17 17 17 17 17 18 19 19 19 19 19 18 18 19 19 19 19 19 19 20 20 20 20 21 22 22 22 23 23 24 24
18 19 19 19 19 18 18 18 18 17 17 17 16 16 16 17 17 16 16 16 17 17 17 16 16 16 17 17 17 17 18 18 19 19 19 20 20 21 21 22 22 23 23 22
Wind_Direction
235 233 231 229 228 230 232 233 235 236 238 238 237 237 237 237 237 237 236 236 237 238 239 240 241 241 241 242 243 244 245 246 245 246 246 246 248 249 249 249 249 250 251 252
236 234 231 228 227 229 230 232 233 235 236 237 238 238 237 237 238 239 238 237 237 238 239 240 241 241 242 242 242 244 245 245 244 244 245 246 247 249 249 250 251 252 252 252
240 236 234 232 228 228 227 229 232 233 235 236 236 237 236 238 239 239 238 238 238 239 239 240 241 241 242 243 243 244 245 245 244 244 245 245 246 247 249 250 252 253 253 253
243 239 238 234 232 232 230 230 232 233 234 236 237 237 237 240 241 240 240 239 239 240 240 240 241 242 243 243 243 243 244 244 244 244 245 246 246 248 249 250 252 252 252 253
243 241 239 236 235 234 233 233 235 237 237 237 237 238 239 242 242 242 241 240 241 241 240 241 242 243 243 243 244 243 243 243 243 243 244 246 246 247 249 250 251 252 253 253
242 239 236 234 232 233 236 238 238 240 240 240 239 239 240 242 243 243 243 242 242 242 242 242 243 243 244 244 244 243 243 242 243 243 244 245 246 247 248 250 251 252 252 253
239 238 238 236 232 234 239 238 237 238 239 240 240 241 242 244 244 243 243 243 243 242 243 243 243 244 244 244 243 243 243 243 243 243 244 244 245 246 247 249 250 251 252 253
244 239 236 239 239 242 245 242 240 238 237 239 240 240 241 242 243 243 242 242 242 243 243 243 244 244 243 244 244 243 243 243 244 244 244 244 245 246 248 249 250 251 253 254
252 246 246 244 246 248 250 248 245 242 239 239 239 239 240 242 243 243 241 241 241 241 241 242 242 243 242 243 243 242 243 243 244 244 244 245 246 247 248 249 250 252 253 255
252 250 253 251 249 251 250 248 246 243 242 240 239 240 240 242 242 240 240 240 240 240 240 241 242 243 242 241 241 241 243 244 244 244 245 246 246 247 248 249 250 252 254 255
259 260 262 257 254 253 252 249 245 243 243 242 240 240 239 238 238 238 237 238 239 239 239 239 240 240 241 242 241 241 242 243 243 243 243 244 245 245 247 248 250 251 252 253
271 269 270 270 268 263 259 255 249 246 246 246 243 239 237 237 237 237 236 236 236 236 237 237 237 238 239 240 240 241 242 242 242 241 242 243 243 244 246 248 249 250 252 254
280 275 274 275 274 268 265 259 252 248 247 245 243 240 237 235 236 236 235 235 236 237 238 237 237 238 238 239 239 240 241 242 241 241 242 243 243 244 245 247 248 250 253 256
283 278 277 276 275 270 266 261 254 248 247 246 241 239 238 235 235 236 236 236 237 238 239 239 239 239 238 239 239 240 242 242 241 241 241 242 244 245 246 248 249 252 255 257
288 283 279 276 273 269 266 262 254 248 247 248 246 243 241 237 235 235 235 236 237 238 239 240 240 241 241 242 242 242 242 241 241 241 242 243 244 246 248 250 251 254 256 258
292 287 280 275 271 268 265 261 258 254 251 250 247 243 242 241 239 237 236 237 238 238 238 240 242 243 242 243 243 243 243 242 241 242 242 244 245 247 249 250 252 254 255 258
292 288 283 279 276 273 268 263 259 256 253 251 249 247 244 243 244 243 242 242 242 242 242 243 243 244 245 244 244 244 244 244 244 243 244 245 247 249 250 251 253 256 257 259
293 289 285 282 280 276 271 265 260 257 254 253 253 251 247 246 247 246 245 244 244 246 246 246 245 245 247 246 245 245 244 244 244 244 245 246 248 249 251 254 256 258 259 259
293 290 286 283 282 280 276 270 263 259 255 254 255 254 251 249 248 247 245 244 245 245 246 247 246 245 246 245 246 246 246 246 245 245 247 248 249 252 254 255 257 258 259 260
293 292 289 286 284 283 279 274 268 263 260 257 257 256 255 252 250 248 247 247 246 246 246 246 246 247 246 247 248 249 248 247 247 247 249 250 253 255 256 257 259 260 261 262
289 289 289 288 286 283 281 277 271 267 264 262 260 259 257 254 251 249 248 247 247 247 247 247 248 248 248 248 250 252 252 251 250 250 251 253 255 257 259 260 261 262 262 263
288 287 287 288 287 284 281 279 275 272 269 267 264 261 258 255 251 249 249 248 247 247 247 248 248 248 249 250 251 253 253 252 252 253 254 255 257 258 259 260 260 261 262 263
288 286 285 285 285 284 281 279 275 272 270 268 265 263 259 254 249 247 248 250 251 250 248 248 248 248 249 249 250 252 252 252 252 252 254 255 255 256 257 258 259 260 261 262
290 287 285 285 285 284 280 276 274 273 270 268 266 263 258 254 250 247 247 249 251 251 250 249 249 249 249 248 249 250 250 251 251 252 253 254 255 256 258 259 259 260 261 262
290 288 287 286 285 282 279 275 273 272 271 269 266 263 259 255 253 251 250 250 250 249 247 246 247 246 245 246 246 246 247 248 249 250 251 252 255 257 258 259 259 259 262 264
288 287 288 289 288 285 280 275 272 271 271 269 266 261 258 256 255 254 252 251 250 248 246 244 245 244 243 243 243 244 246 248 250 252 252 253 256 258 259 258 260 263 265 267
290 289 289 290 290 288 282 276 272 270 268 267 265 260 257 255 254 254 253 249 246 243 242 242 243 244 243 243 244 247 250 251 252 253 255 256 258 259 260 261 263 266 267 267
Height
5483 5485 5489 5493 5497 5502 5506 5510 5516 5521 5525 5530 5534 5538 5542 5547 5552 5556 5561 5565 5569 5574 5578 5582 5586 5590 5594 5598 5601 5605 5608 5612 5615 5618 5621 5625 5628 5631 5634 5637 5640 5643 5646 5649
5476 5479 5482 5485 5489 5493 5498 5502 5507 5511 5516 5520 5524 5528 5532 5536 5541 5545 5550 5554 5558 5562 5566 5570 5574 5578 5582 5586 5589 5593 5596 5600 5603 5606 5610 5613 5616 5619 5622 5625 5628 5631 5634 5637
5471 5473 5475 5479 5482 5485 5489 5493 5498 5501 5507 5511 5514 5518 5523 5526 5530 5535 5539 5543 5546 5551 5555 5559 5563 5566 5570 5574 5577 5581 5584 5588 5591 5594 5598 5601 5605 5608 5611 5613 5616 5618 5621 5624
5464 5467 5469 5473 5475 5478 5482 5485 5489 5493 5497 5501 5504 5508 5513 5516 5520 5524 5528 5531 5535 5539 5543 5547 5551 5555 5558 5562 5566 5569 5573 5576 5579 5582 5586 5589 5592 5596 5598 5601 5604 5606 5609 5611
5459 5460 5462 5466 5468 5471 5475 5478 5481 5484 5487 5491 5495 5499 5503 5507 5510 5514 5517 5521 5524 5528 5532 5536 5540 5543 5547 5550 5554 5557 5561 5564 5567 5571 5574 5577 5581 5584 5586 5589 5591 5594 5597 5599
5454 5456 5458 5461 5463 5464 5469 5471 5473 5476 5479 5482 5486 5490 5495 5498 5501 5504 5507 5510 5514 5518 5521 5525 5528 5532 5535 5539 5542 5546 5549 5552 5556 5559 5562 5566 5569 5572 5574 5577 5579 5582 5584 5587
5450 5451 5453 5455 5457 5459 5463 5465 5466 5468 5471 5474 5477 5481 5485 5488 5491 5494 5497 5500 5504 5507 5511 5514 5518 5521 5524 5527 5530 5534 5537 5541 5544 5548 5551 5554 5558 5560 5563 5565 5568 5570 5573 5575
5447 5448 5451 5450 5452 5454 5455 5457 5459 5461 5463 5466 5469 5472 5475 5478 5481 5484 5487 5490 5494 5497 5501 5504 5507 5510 5513 5516 5519 5522 5526 5529 5533 5536 5540 5543 5546 5549 5552 5554 5557 5559 5561 5563
5444 5446 5445 5446 5447 5448 5449 5450 5452 5454 5456 5458 5461 5463 5466 5469 5472 5474 5477 5481 5484 5487 5491 5494 5497 5499 5503 5506 5508 5511 5515 5518 5521 5525 5528 5531 5535 5537 5540 5543 5546 5548 5550 5552
5441 5441 5442 5442 5443 5443 5443 5444 5446 5447 5449 5451 5453 5455 5458 5460 5463 5465 5468 5471 5475 5478 5481 5484 5487 5490 5493 5495 5498 5501 5504 5508 5511 5514 5517 5520 5523 5526 5529 5532 5534 5537 5539 5541
5438 5438 5438 5438 5438 5438 5438 5439 5440 5441 5443 5445 5446 5448 5450 5452 5455 5457 5460 5463 5466 5469 5472 5475 5478 5481 5483 5486 5489 5492 5495 5497 5500 5503 5506 5509 5512 5515 5518 5521 5523 5526 5528 5529
5436 5435 5435 5434 5434 5434 5434 5434 5435 5436 5438 5439 5440 5441 5443 5445 5448 5450 5453 5455 5458 5461 5463 5466 5469 5471 5474 5477 5479 5482 5485 5488 5490 5493 5495 5498 5501 5504 5507 5510 5512 5514 5516 5518
5432 5432 5431 5430 5430 5430 5430 5430 5430 5431 5432 5433 5434 5436 5437 5439 5441 5444 5446 5448 5451 5453 5455 5458 5460 5463 5465 5467 5470 5473 5475 5478 5480 5483 5486 5488 5491 5494 5497 5499 5501 5503 5505 5507
5429 5428 5428 5427 5426 5426 5426 5426 5426 5427 5427 5428 5429 5430 5432 5433 5435 5437 5439 5442 5444 5446 5448 5450 5452 5454 5456 5459 5461 5463 5466 5468 5471 5474 5477 5479 5482 5484 5486 5489 5491 5493 5495 5496
5425 5424 5424 5423 5422 5422 5422 5422 5422 5422 5423 5424 5424 5426 5427 5428 5430 5431 5433 5435 5437 5439 5441 5443 5445 5447 5448 5450 5452 5455 5457 5460 5462 5465 5467 5470 5472 5474 5476 5479 5481 5483 5484 5485
5421 5420 5419 5419 5418 5418 5418 5418 5418 5418 5418 5419 5420 5421 5422 5423 5424 5426 5427 5429 5431 5432 5434 5436 5437 5439 5440 5442 5444 5446 5449 5451 5453 5456 5458 5460 5463 5465 5467 5469 5470 5472 5473 5474
5417 5416 5415 5415 5414 5414 5413 5413 5413 5413 5413 5414 5415 5415 5416 5417 5419 5420 5421 5423 5424 5426 5427 5429 5430 5432 5433 5435 5437 5438 5440 5442 5444 5447 5449 5451 5453 5455 5456 5458 5460 5461 5462 5463
5413 5412 5411 5410 5409 5409 5408 5408 5408 5408 5408 5409 5409 5410 5411 5412 5413 5414 5415 5417 5418 5419 5421 5422 5423 5425 5426 5428 5429 5431 5432 5434 5436 5438 5440 5441 5443 5445 5446 5447 5449 5450 5451 5452
5409 5408 5407 5406 5405 5404 5403 5403 5403 5403 5403 5403 5404 5404 5405 5406 5407 5408 5409 5410 5411 5413 5414 5415 5416 5418 5419 5420 5422 5423 5425 5426 5428 5429 5430 5432 5433 5435 5436 5437 5439 5439 5440 5441
5404 5403 5402 5401 5400 5399 5398 5398 5397 5397 5397 5398 5398 5399 5399 5399 5400 5401 5402 5403 5404 5405 5407 5408 5409 5411 5412 5413 5414 5416 5417 5418 5419 5420 5422 5423 5424 5425 5426 5427 5428 5429 5429 5430
5400 5398 5397 5396 5395 5393 5393 5392 5392 5391 5391 5391 5392 5392 5392 5392 5393 5394 5395 5396 5397 5398 5400 5401 5402 5404 5405 5406 5407 5408 5408 5409 5411 5412 5413 5414 5415 5416 5417 5417 5418 5418 5419 5419
5394 5393 5391 5390 5389 5388 5387 5386 5385 5385 5385 5385 5385 5385 5385 5385 5385 5386 5387 5389 5390 5391 5392 5393 5395 5396 5397 5398 5399 5400 5400 5401 5402 5403 5404 5405 5405 5406 5407 5407 5408 5408 5408 5409
5388 5387 5385 5384 5383 5382 5381 5380 5379 5379 5379 5379 5378 5378 5377 5378 5378 5380 5381 5382 5382 5383 5384 5385 5387 5388 5389 5390 5391 5392 5392 5393 5394 5394 5395 5396 5396 5397 5397 5398 5398 5399 5399 5399
5382 5381 5380 5378 5377 5376 5375 5374 5374 5373 5372 5372 5371 5371 5371 5371 5372 5373 5374 5375 5375 5376 5377 5378 5379 5380 5381 5382 5383 5384 5385 5385 5386 5387 5387 5388 5388 5389 5389 5390 5390 5390 5390 5391
5376 5375 5373 5372 5371 5370 5369 5368 5367 5367 5366 5366 5365 5365 5365 5365 5366 5367 5367 5368 5369 5369 5370 5371 5372 5373 5374 5375 5376 5377 5378 5378 5379 5379 5380 5380 5381 5381 5382 5382 5382 5383 5383 5383
5370 5369 5367 5366 5365 5363 5362 5361 5361 5360 5360 5359 5359 5359 5359 5359 5360 5360 5361 5362 5362 5363 5364 5365 5366 5367 5368 5369 5370 5371 5371 5372 5372 5373 5373 5374 5374 5374 5375 5375 5375 5375 5375 5375
5363 5362 5361 5359 5358 5357 5356 5355 5354 5354 5353 5353 5353 5353 5353 5353 5354 5354 5355 5355 5356 5357 5358 5359 5360 5361 5362 5363 5364 5365 5365 5366 5366 5367 5367 5367 5367 5368 5368 5368 5368 5368 5368 5367